This is the latest recevied weather packets stored in our database for station/object W1LBM. If no packets are shown the sender has not sent any weather packets the latest 1 day(s).
| Time | Temp. | Humidity | Pressure | Rain* | Wind** | Luminosity | Snow |
|---|---|---|---|---|---|---|---|
| 1778010548 | 22.22° C | 55% | 1011.6 hPa | 0 mm | 0.45 m/s, 140° | 264 W/m² | - |
| 1778010246 | 21.67° C | 55% | 1011.7 hPa | 0 mm | 0.45 m/s, 152° | 198 W/m² | - |
| 1778009945 | 22.22° C | 56% | 1011.7 hPa | 0 mm | 1.79 m/s, 116° | 361 W/m² | - |
| 1778009644 | 22.78° C | 54% | 1011.8 hPa | 0 mm | 1.79 m/s, 106° | 522 W/m² | - |
| 1778009341 | 22.78° C | 54% | 1011.7 hPa | 0 mm | 0.89 m/s, 102° | 402 W/m² | - |
| 1778009039 | 22.78° C | 54% | 1012 hPa | 0 mm | 1.34 m/s, 180° | 534 W/m² | - |
| 1778008736 | 22.78° C | 55% | 1011.9 hPa | 0 mm | 1.34 m/s, 88° | 541 W/m² | - |
| 1778008435 | 22.78° C | 55% | 1011.7 hPa | 0 mm | 0.89 m/s, 154° | 557 W/m² | - |
| 1778008131 | 22.78° C | 55% | 1011.7 hPa | 0 mm | 1.34 m/s, 166° | 568 W/m² | - |
| 1778007827 | 22.78° C | 55% | 1012 hPa | 0 mm | 1.34 m/s, 128° | 576 W/m² | - |
| 1778007522 | 23.33° C | 54% | 1011.9 hPa | 0 mm | 0.45 m/s, 120° | 586 W/m² | - |
| 1778007219 | 22.78° C | 54% | 1011.9 hPa | 0 mm | 0.89 m/s, 132° | 593 W/m² | - |
| 1778006915 | 22.78° C | 54% | 1011.9 hPa | 0 mm | 2.24 m/s, 176° | 600 W/m² | - |
| 1778006612 | 22.78° C | 55% | 1012 hPa | 0 mm | 1.34 m/s, 143° | 612 W/m² | - |
| 1778006309 | 23.33° C | 53% | 1011.7 hPa | 0 mm | 0.89 m/s, 106° | 619 W/m² | - |
| 1778006006 | 23.89° C | 52% | 1011.9 hPa | 0 mm | 0.45 m/s, 155° | 627 W/m² | - |
| 1778005703 | 23.89° C | 51% | 1011.8 hPa | 0 mm | 0.89 m/s, 153° | 629 W/m² | - |
| 1778005400 | 25° C | 49% | 1011.8 hPa | 0 mm | 1.34 m/s, 110° | 638 W/m² | - |
| 1778005096 | 25° C | 49% | 1012 hPa | 0 mm | 1.79 m/s, 184° | 644 W/m² | - |
| 1778004794 | 25° C | 48% | 1012.2 hPa | 0 mm | 0.89 m/s, 113° | 651 W/m² | - |
| 1778004490 | 25° C | 49% | 1012.2 hPa | 0 mm | 0.89 m/s, 158° | 654 W/m² | - |
| 1778004187 | 25° C | 48% | 1012.1 hPa | 0 mm | 0.45 m/s, 130° | 660 W/m² | - |
| 1778003883 | 25° C | 49% | 1012.3 hPa | 0 mm | 0.89 m/s, 137° | 662 W/m² | - |
| 1778003580 | 25° C | 51% | 1012.5 hPa | 0 mm | 0 m/s | 665 W/m² | - |
| 1778003276 | 24.44° C | 51% | 1012.5 hPa | 0 mm | 2.68 m/s, 122° | 671 W/m² | - |
* Rain latest hour (hover to see other rain measurements)
** Current wind speed in m/s (hover to see current wind gust speed)